TimeEDT,TemperatureF,Dew PointF,Humidity,Sea Level PressureIn,VisibilityMPH,Wind Direction,Wind SpeedMPH,Gust SpeedMPH,PrecipitationIn,Events,Conditions,WindDirDegrees,DateUTC
12:14 AM,60.1,53.1,78,29.97,10.0,NNW,6.9,-,N/A,,Overcast,340,2014-07-03 04:14:00
12:33 AM,59.9,53.1,78,29.98,10.0,NNW,4.6,-,N/A,,Overcast,340,2014-07-03 04:33:00
12:53 AM,59.7,52.2,76,29.98,10.0,North,5.8,-,N/A,,Overcast,360,2014-07-03 04:53:00
1:13 AM,59.4,51.8,76,29.98,10.0,North,5.8,-,N/A,,Overcast,350,2014-07-03 05:13:00
1:33 AM,59.2,51.4,75,29.99,10.0,NNW,4.6,-,N/A,,Overcast,340,2014-07-03 05:33:00
1:53 AM,59.2,51.3,75,29.98,10.0,North,6.9,-,N/A,,Overcast,350,2014-07-03 05:53:00
2:12 AM,59.0,51.1,75,29.98,10.0,NNW,5.8,-,N/A,,Overcast,340,2014-07-03 06:12:00
2:33 AM,59.0,50.9,74,29.98,10.0,NNW,6.9,-,N/A,,Overcast,340,2014-07-03 06:33:00
2:52 AM,59.0,50.2,73,29.99,10.0,NNW,6.9,-,N/A,,Overcast,330,2014-07-03 06:52:00
3:13 AM,58.1,49.5,73,29.99,10.0,NNW,8.1,-,N/A,,Overcast,340,2014-07-03 07:13:00
3:33 AM,57.7,48.9,72,29.99,10.0,North,8.1,-,N/A,,Overcast,350,2014-07-03 07:33:00
3:53 AM,57.6,47.7,70,29.99,10.0,North,6.9,-,N/A,,Overcast,360,2014-07-03 07:53:00
4:13 AM,57.4,45.9,65,29.99,10.0,North,6.9,-,N/A,,Overcast,360,2014-07-03 08:13:00
4:33 AM,57.4,48.4,72,29.99,10.0,North,6.9,-,N/A,,Overcast,350,2014-07-03 08:33:00
4:53 AM,57.4,47.7,70,29.99,10.0,North,6.9,-,N/A,,Overcast,350,2014-07-03 08:53:00
5:13 AM,57.2,46.2,67,29.98,10.0,North,6.9,-,N/A,,Overcast,360,2014-07-03 09:13:00
5:33 AM,57.2,45.5,65,29.98,10.0,North,4.6,-,N/A,,Overcast,360,2014-07-03 09:33:00
5:54 AM,56.8,43.5,61,29.99,10.0,NNW,6.9,-,N/A,,Overcast,340,2014-07-03 09:54:00
6:13 AM,56.3,41.9,59,30.00,10.0,NNW,6.9,-,N/A,Rain,Light Rain,330,2014-07-03 10:13:00
6:33 AM,54.0,44.1,69,30.02,7.0,NNW,9.2,-,N/A,Rain,Light Rain,330,2014-07-03 10:33:00
6:53 AM,51.3,46.8,85,30.04,2.5,NW,5.8,-,N/A,Rain,Heavy Rain,310,2014-07-03 10:53:00
7:13 AM,50.2,46.4,87,30.05,5.0,Calm,Calm,-,N/A,Rain,Rain,0,2014-07-03 11:13:00
7:33 AM,50.2,47.3,90,30.04,5.0,Calm,Calm,-,N/A,Rain,Rain,0,2014-07-03 11:33:00
7:53 AM,50.2,47.8,92,30.04,5.0,Calm,Calm,-,N/A,Rain,Light Rain,0,2014-07-03 11:53:00
8:13 AM,50.9,48.6,92,30.05,10.0,Calm,Calm,-,N/A,Rain,Light Rain,0,2014-07-03 12:13:00
8:33 AM,51.3,48.4,90,30.05,7.0,Calm,Calm,-,N/A,Rain,Light Rain,0,2014-07-03 12:33:00
8:54 AM,52.7,49.5,89,30.05,10.0,Calm,Calm,-,N/A,,Light Drizzle,0,2014-07-03 12:54:00
9:13 AM,54.0,50.0,86,30.05,10.0,West,3.5,-,N/A,Rain,Light Rain,280,2014-07-03 13:13:00
9:53 AM,55.4,49.3,80,30.04,10.0,NW,5.8,-,N/A,,Mostly Cloudy,310,2014-07-03 13:53:00
10:13 AM,55.6,49.1,79,30.05,10.0,NW,5.8,-,N/A,,Scattered Clouds,310,2014-07-03 14:13:00
10:33 AM,57.2,50.0,77,30.05,10.0,WNW,6.9,-,N/A,,Mostly Cloudy,300,2014-07-03 14:33:00
10:53 AM,57.4,48.9,73,30.05,10.0,NW,4.6,-,N/A,,Scattered Clouds,310,2014-07-03 14:53:00
11:14 AM,60.6,50.0,68,30.05,10.0,NNW,10.4,-,N/A,,Clear,330,2014-07-03 15:14:00
11:33 AM,62.6,48.7,60,30.05,10.0,NNW,6.9,-,N/A,,Clear,340,2014-07-03 15:33:00
11:53 AM,63.7,48.0,57,30.05,10.0,NNW,5.8,-,N/A,,Clear,330,2014-07-03 15:53:00
12:13 PM,66.4,45.3,47,30.05,10.0,NW,6.9,16.1,N/A,,Clear,310,2014-07-03 16:13:00
12:33 PM,67.6,43.9,42,30.05,10.0,NW,10.4,-,N/A,,Clear,310,2014-07-03 16:33:00
12:54 PM,68.7,43.3,40,30.06,10.0,WNW,6.9,-,N/A,,Clear,300,2014-07-03 16:54:00
1:13 PM,69.8,42.8,38,30.06,10.0,WNW,12.7,18.4,N/A,,Clear,290,2014-07-03 17:13:00
1:34 PM,70.2,41.4,35,30.06,10.0,NW,11.5,18.4,N/A,,Clear,320,2014-07-03 17:34:00
1:53 PM,71.4,43.0,36,30.07,10.0,NW,9.2,19.6,N/A,,Clear,320,2014-07-03 17:53:00
2:13 PM,72.1,41.5,33,30.07,10.0,NW,10.4,18.4,N/A,,Clear,310,2014-07-03 18:13:00
2:33 PM,72.5,41.4,32,30.07,10.0,NW,12.7,17.3,N/A,,Scattered Clouds,310,2014-07-03 18:33:00
2:54 PM,72.5,40.3,31,30.07,10.0,West,12.7,17.3,N/A,,Scattered Clouds,280,2014-07-03 18:54:00
3:14 PM,72.9,40.3,31,30.07,10.0,WNW,10.4,-,N/A,,Clear,300,2014-07-03 19:14:00
3:33 PM,73.2,40.6,31,30.07,10.0,West,8.1,-,N/A,,Scattered Clouds,280,2014-07-03 19:33:00
3:54 PM,73.0,39.7,30,30.07,10.0,Calm,Calm,-,N/A,,Scattered Clouds,0,2014-07-03 19:54:00
4:13 PM,74.3,40.5,30,30.07,10.0,NW,11.5,-,N/A,,Scattered Clouds,310,2014-07-03 20:13:00
4:33 PM,74.5,40.3,29,30.07,10.0,NW,8.1,-,N/A,,Scattered Clouds,310,2014-07-03 20:33:00
4:53 PM,74.5,39.7,29,30.07,10.0,WNW,11.5,16.1,N/A,,Scattered Clouds,290,2014-07-03 20:53:00
5:13 PM,74.3,38.8,28,30.08,10.0,WNW,10.4,17.3,N/A,,Scattered Clouds,290,2014-07-03 21:13:00
5:34 PM,74.5,39.0,28,30.07,10.0,WNW,10.4,-,N/A,,Scattered Clouds,290,2014-07-03 21:34:00
5:53 PM,74.3,38.7,28,30.08,7.0,NW,9.2,-,N/A,,Scattered Clouds,310,2014-07-03 21:53:00
6:13 PM,74.1,38.3,27,30.08,10.0,NW,9.2,-,N/A,,Scattered Clouds,320,2014-07-03 22:13:00
6:34 PM,72.7,52.5,49,30.08,10.0,NE,5.8,-,N/A,,Mostly Cloudy,40,2014-07-03 22:34:00
6:53 PM,71.1,54.0,55,30.09,10.0,East,6.9,-,N/A,,Overcast,90,2014-07-03 22:53:00
7:14 PM,70.2,54.9,58,30.09,10.0,East,8.1,-,N/A,,Mostly Cloudy,80,2014-07-03 23:14:00
7:33 PM,68.9,55.2,62,30.09,10.0,ENE,8.1,-,N/A,,Scattered Clouds,70,2014-07-03 23:33:00
7:54 PM,67.3,55.8,66,30.11,10.0,East,10.4,-,N/A,,Mostly Cloudy,80,2014-07-03 23:54:00
8:13 PM,65.7,56.1,71,30.11,10.0,ENE,9.2,-,N/A,,Mostly Cloudy,70,2014-07-04 00:13:00
8:33 PM,64.4,56.1,74,30.12,10.0,ENE,9.2,-,N/A,,Scattered Clouds,60,2014-07-04 00:33:00
8:54 PM,63.3,55.4,75,30.12,10.0,East,4.6,-,N/A,,Clear,80,2014-07-04 00:54:00
9:13 PM,61.0,54.9,80,30.12,10.0,East,4.6,-,N/A,,Clear,80,2014-07-04 01:13:00
9:33 PM,59.0,54.9,86,30.13,10.0,NE,3.5,-,N/A,,Clear,50,2014-07-04 01:33:00
9:53 PM,57.6,54.0,88,30.14,10.0,NE,5.8,-,N/A,,Clear,40,2014-07-04 01:53:00
10:14 PM,58.3,54.5,87,30.15,10.0,NNE,4.6,-,N/A,,Clear,30,2014-07-04 02:14:00
10:33 PM,57.7,53.8,87,30.16,10.0,North,4.6,-,N/A,,Clear,10,2014-07-04 02:33:00
10:53 PM,57.4,53.8,88,30.17,10.0,NNE,4.6,-,N/A,,Clear,20,2014-07-04 02:53:00
11:13 PM,56.3,53.4,90,30.17,10.0,Calm,Calm,-,N/A,,Clear,0,2014-07-04 03:13:00
11:33 PM,55.4,53.2,92,30.17,10.0,Calm,Calm,-,N/A,,Clear,0,2014-07-04 03:33:00
11:54 PM,54.7,53.1,94,30.18,10.0,Calm,Calm,-,N/A,,Clear,0,2014-07-04 03:54:00